FW5122 Weather Reports


Display with metric or nautical units.
time (UTC)temp
F
wind
direction
speed
MPH
gust
MPH
rain 1hr
in
rain 24hr
in
rain mn
in
humidity
%
barometer
mb
20260504210333 83 79 19.0 23.0 0.00 0.00 0.00 53 1009.1
20260504205634 83 103 19.0 23.0 0.00 0.00 0.00 53 1009.1
20260504204933 82 30 5.0 23.0 0.00 0.00 0.00 54 1009.1
20260504204233 82 354 11.0 23.0 0.00 0.00 0.00 53 1009.4
20260504202833 82 89 22.0 23.0 0.00 0.00 0.00 53 1010.1
20260504200733 82 216 11.0 23.0 0.00 0.00 0.00 53 1010.1
20260504200033 82 13 5.0 23.0 0.00 0.00 0.00 52 1010.4
20260504194633 82 20 22.0 23.0 0.00 0.00 0.00 52 1010.7
20260504193933 82 22 2.0 23.0 0.00 0.00 0.00 51 1010.4
20260504193233 82 330 11.0 23.0 0.00 0.00 0.00 52 1010.7
20260504192532 82 16 5.0 23.0 0.00 0.00 0.00 52 1010.7
20260504191832 82 40 8.0 23.0 0.00 0.00 0.00 51 1011.1
20260504191133 82 13 11.0 23.0 0.00 0.00 0.00 51 1010.7
20260504190433 82 3 5.0 21.0 0.00 0.00 0.00 52 1011.1
20260504185032 81 14 5.0 21.0 0.00 0.00 0.00 52 1011.4
20260504184333 80 8 2.0 21.0 0.00 0.00 0.00 52 1011.1
20260504183633 80 19 5.0 21.0 0.00 0.00 0.00 52 1011.4
20260504182933 80 316 8.0 21.0 0.00 0.00 0.00 51 1011.4
20260504182233 80 42 14.0 21.0 0.00 0.00 0.00 51 1011.8
20260504181533 80 51 5.0 21.0 0.00 0.00 0.00 51 1011.8
20260504180832 80 5 8.0 21.0 0.00 0.00 0.00 50 1011.8
20260504180132 80 304 8.0 19.0 0.00 0.00 0.00 51 1011.8
20260504175433 80 77 8.0 19.0 0.00 0.00 0.00 51 1012.1
20260504173333 80 50 5.0 17.0 0.00 0.00 0.00 49 1012.4
20260504172632 80 52 14.0 17.0 0.00 0.00 0.00 49 1012.4
20260504171933 79 15 14.0 14.0 0.00 0.00 0.00 50 1012.4
20260504171232 79 72 11.0 14.0 0.00 0.00 0.00 49 1012.8
20260504170533 79 32 17.0 14.0 0.00 0.00 0.00 49 1012.8
20260504160237 75 96 19.0 17.0 0.00 0.00 0.00 55 1013.5
20260504150632 71 29 5.0 14.0 0.00 0.00 0.00 61 1014.1
20260504130732 64 27 5.0 10.0 0.00 0.00 0.00 68 1014.8
20260504110332 63 10 0.0 10.0 0.00 0.00 0.00 64 1013.8
20260504081531 65 44 5.0 10.0 0.00 0.00 0.00 59 1014.8
20260504080831 66 28 5.0 10.0 0.00 0.00 0.00 57 1014.8
20260504060231 67 8 0.0 12.0 0.00 0.00 0.00 54 1015.8
20260504050631 68 19 0.0 6.0 0.00 0.00 0.00 52 1016.5
20260504045231 68 10 0.0 6.0 0.00 0.00 0.00 52 1016.5
20260504044531 68 8 0.0 14.0 0.00 0.00 0.00 51 1016.5
20260504043831 68 17 5.0 14.0 0.00 0.00 0.00 51 1016.8
20260504043131 68 8 0.0 14.0 0.00 0.00 0.00 51 1016.8
20260504041731 69 9 0.0 14.0 0.00 0.00 0.00 50 1016.8
20260504041032 69 6 0.0 14.0 0.00 0.00 0.00 50 1016.8
20260504040331 69 12 2.0 14.0 0.00 0.00 0.00 49 1016.8
20260504035631 69 11 0.0 14.0 0.00 0.00 0.00 49 1016.8
20260504034234 69 16 0.0 4.0 0.00 0.00 0.00 48 1016.8
20260504033532 69 15 5.0 6.0 0.00 0.00 0.00 48 1016.5
20260504032131 70 10 0.0 8.0 0.00 0.00 0.00 47 1016.5
20260504031431 70 12 0.0 8.0 0.00 0.00 0.00 47 1016.5
20260504030732 70 11 0.0 8.0 0.00 0.00 0.00 46 1016.5
20260504030032 70 10 0.0 8.0 0.00 0.00 0.00 46 1016.8
20260504025331 71 346 2.0 8.0 0.00 0.00 0.00 46 1016.8
20260504024631 71 11 0.0 8.0 0.00 0.00 0.00 45 1016.5
20260504023931 71 12 0.0 10.0 0.00 0.00 0.00 45 1016.5
20260504023232 71 14 0.0 10.0 0.00 0.00 0.00 45 1016.5
20260504022531 72 17 0.0 10.0 0.00 0.00 0.00 44 1016.5
20260504021831 72 7 2.0 10.0 0.00 0.00 0.00 44 1016.2
20260504021131 72 0 2.0 10.0 0.00 0.00 0.00 44 1016.5
20260504015731 73 17 5.0 10.0 0.00 0.00 0.00 43 1016.5
20260504015030 73 16 0.0 10.0 0.00 0.00 0.00 43 1016.5
20260504014332 74 42 8.0 10.0 0.00 0.00 0.00 42 1016.2
20260504012930 74 4 2.0 8.0 0.00 0.00 0.00 42 1015.8
20260504012231 75 2 0.0 8.0 0.00 0.00 0.00 41 1016.2
20260504010832 75 9 2.0 8.0 0.00 0.00 0.00 41 1016.2
20260504010131 75 11 0.0 8.0 0.00 0.00 0.00 40 1016.2
20260504004731 76 4 5.0 12.0 0.00 0.00 0.00 39 1016.2
20260504004031 77 9 2.0 17.0 0.00 0.00 0.00 38 1016.2
20260504003331 77 24 2.0 17.0 0.00 0.00 0.00 38 1016.2
20260504002631 77 112 11.0 17.0 0.00 0.00 0.00 37 1016.2
20260504001930 78 9 0.0 17.0 0.00 0.00 0.00 37 1015.8
20260504001232 78 352 5.0 17.0 0.00 0.00 0.00 36 1016.2
20260504000531 78 11 5.0 17.0 0.00 0.00 0.00 36 1016.2
20260503235832 78 38 2.0 17.0 0.00 0.00 0.00 36 1016.2
20260503235133 79 355 5.0 17.0 0.00 0.00 0.00 36 1016.2
20260503234433 79 30 8.0 12.0 0.00 0.00 0.00 36 1016.5
20260503233735 79 352 5.0 12.0 0.00 0.00 0.00 37 1016.2
20260503233033 79 13 2.0 12.0 0.00 0.00 0.00 36 1016.5
20260503232333 79 26 8.0 10.0 0.00 0.00 0.00 37 1016.8
20260503230933 80 54 8.0 10.0 0.00 0.00 0.00 36 1016.5
20260503230233 80 7 2.0 10.0 0.00 0.00 0.00 36 1016.2
20260503225533 80 19 5.0 14.0 0.00 0.00 0.00 36 1016.5
20260503224833 80 340 5.0 14.0 0.00 0.00 0.00 35 1016.5
20260503224133 81 27 11.0 14.0 0.00 0.00 0.00 36 1016.8
20260503223433 81 12 5.0 14.0 0.00 0.00 0.00 36 1016.8
20260503222733 81 338 8.0 14.0 0.00 0.00 0.00 35 1016.8
20260503222033 81 48 5.0 14.0 0.00 0.00 0.00 35 1016.8
20260503221333 82 6 8.0 14.0 0.00 0.00 0.00 34 1017.2
20260503220633 82 11 5.0 12.0 0.00 0.00 0.00 34 1017.2
20260503215933 83 27 2.0 19.0 0.00 0.00 0.00 34 1017.2
20260503215233 83 15 8.0 19.0 0.00 0.00 0.00 34 1017.2
20260503214533 84 11 5.0 19.0 0.00 0.00 0.00 34 1017.2
20260503213133 84 21 5.0 19.0 0.00 0.00 0.00 33 1017.5
20260503211734 84 354 5.0 19.0 0.00 0.00 0.00 34 1017.5
20260503211033 84 217 25.0 19.0 0.00 0.00 0.00 33 1017.5